sat.trackr.live / text

‹ back to catalog

STARLINK-2643

NORAD 48367 · 2021-038Q

PAYLOAD ACTIVE UNKNOWN

§ Identity

Operator
Country
US
Launch date
2021-05-04
Launch site
AFETR
Launch vehicle
Mass (kg)
RCS (m²)

Purposes: comms

External: N2YO · Heavens-Above · Gunter

§ Orbital elements

Epoch: 2026-05-24T20:25:47.063424Z

Period
94.01 min
Inclination
53.1613°
Eccentricity
0.0001361
Mean motion
15.31710664 rev/d
Perigee alt
469.8 km
Apogee alt
471.6 km
Semi-major
6,848.8 km
B*
1.7882e-4
RAAN
351.1685°
Arg perigee
94.2259°
Mean anomaly
265.8898°
Rev number
27,892

§ Raw data

STARLINK-26431 48367U 21038Q   26144.85123916  .00005190  00000+0  17882-3 0  99972 48367  53.1613 351.1685 0001361  94.2259 265.8898 15.31710664278928

JSON: /api/v1/satellites/48367 · /tle

For live sub-satellite position, see the globe view (requires WebGL).

§ Visibility from observer

Set your observer location to see the next 7 days of passes ≥ 10°. The values pass through the URL so the page stays shareable.

No JS? Fill the form by hand. The geolocation button needs JavaScript.